This is the latest recevied weather packets stored in our database for station/object HB9MIR-13. If no packets are shown the sender has not sent any weather packets the latest 10 day(s).
| Time | Temp. | Humidity | Pressure | Rain* | Wind** | Luminosity | Snow |
|---|---|---|---|---|---|---|---|
| 1777843617 | 14.44° C | 59% | 1013.6 hPa | 0 mm | - | 0 W/m² | - |
| 1777842593 | 14.44° C | 63% | 1013.7 hPa | 0 mm | - | 0 W/m² | - |
| 1777841906 | 13.89° C | 62% | 1013.6 hPa | 0 mm | - | 0 W/m² | - |
| 1777841218 | 13.89° C | 68% | 1013.8 hPa | 0 mm | - | 0 W/m² | - |
| 1777840536 | 13.89° C | 64% | 1013.8 hPa | 0 mm | - | 0 W/m² | - |
| 1777839844 | 14.44° C | 60% | 1013.8 hPa | 0 mm | - | 0 W/m² | - |
| 1777839159 | 15° C | 57% | 1013.8 hPa | 0 mm | - | 0 W/m² | - |
| 1777838468 | 15° C | 56% | 1013.9 hPa | 0 mm | - | 0 W/m² | - |
| 1777837780 | 15° C | 56% | 1013.8 hPa | 0 mm | - | 0 W/m² | - |
| 1777837106 | 15° C | 56% | 1013.5 hPa | 0 mm | - | 0 W/m² | - |
| 1777836403 | 15.56° C | 53% | 1013.5 hPa | 0 mm | - | 0 W/m² | - |
| 1777835716 | 15.56° C | 55% | 1013.4 hPa | 0 mm | - | 0 W/m² | - |
| 1777835029 | 15.56° C | 57% | 1013.2 hPa | 0 mm | - | 0 W/m² | - |
| 1777834342 | 15.56° C | 54% | 1013.2 hPa | 0 mm | - | 1 W/m² | - |
| 1777833654 | 16.11° C | 54% | 1013.2 hPa | 0 mm | - | 2 W/m² | - |
| 1777832966 | 16.11° C | 51% | 1013.1 hPa | 0 mm | - | 5 W/m² | - |
| 1777832291 | 16.11° C | 44% | 1012.9 hPa | 0 mm | - | 10 W/m² | - |
| 1777831589 | 16.67° C | 51% | 1012.9 hPa | 0 mm | - | 19 W/m² | - |
| 1777830902 | 17.22° C | 44% | 1012.9 hPa | 0 mm | - | 27 W/m² | - |
| 1777830213 | 17.22° C | 45% | 1012.9 hPa | 0 mm | - | 39 W/m² | - |
| 1777829526 | 17.78° C | 47% | 1012.9 hPa | 0 mm | - | 49 W/m² | - |
| 1777828839 | 17.22° C | 62% | 1012.9 hPa | 0 mm | - | 65 W/m² | - |
| 1777828151 | 16.67° C | 62% | 1012.9 hPa | 0 mm | - | 55 W/m² | - |
| 1777827476 | 16.67° C | 65% | 1013 hPa | 0 mm | - | 44 W/m² | - |
| 1777826776 | 17.22° C | 57% | 1013.3 hPa | 0 mm | - | 34 W/m² | - |
* Rain latest hour (hover to see other rain measurements)
** Current wind speed in m/s (hover to see current wind gust speed)